sat.trackr.live / text

‹ back to catalog

STARLINK-3665

NORAD 52098 · 2022-029L

PAYLOAD ACTIVE UNKNOWN

§ Identity

Operator
Country
US
Launch date
2022-03-19
Launch site
AFETR
Launch vehicle
Mass (kg)
RCS (m²)

Purposes: comms

External: N2YO · Heavens-Above · Gunter

§ Orbital elements

Epoch: 2026-05-25T02:39:19.874016Z

Period
95.44 min
Inclination
53.2139°
Eccentricity
0.0001579
Mean motion
15.08845053 rev/d
Perigee alt
538.6 km
Apogee alt
540.8 km
Semi-major
6,917.9 km
B*
-7.4144e-5
RAAN
106.0509°
Arg perigee
85.0692°
Mean anomaly
275.0480°
Rev number
23,219

§ Raw data

STARLINK-36651 52098U 22029L   26145.11064669 -.00001468  00000+0 -74144-4 0  99942 52098  53.2139 106.0509 0001579  85.0692 275.0480 15.08845053232194

JSON: /api/v1/satellites/52098 · /tle

For live sub-satellite position, see the globe view (requires WebGL).

§ Visibility from observer

Set your observer location to see the next 7 days of passes ≥ 10°. The values pass through the URL so the page stays shareable.

No JS? Fill the form by hand. The geolocation button needs JavaScript.